Terminal Aerodrome Forecast
Issued by NWS

Home | Current Version | Previous Version | Graphics & Text | Print | Product List | Glossary On
Versions: 1 2 3 4 5 6 7 8 9 10 11 12 13 14 15 16 17 18 19 20 21 22 23 24 25 26 27 28 29 30
000
FTUS42 KMHX 130500
TAFOAJ
TAF
KOAJ 130532Z 1306/1406 00000KT 6SM BR OVC003
     FM130800 00000KT 2SM BR OVC003
     FM131400 VRB04KT P6SM VCSH OVC020
     FM131800 21005KT P6SM VCTS BKN035CB
      TEMPO 1320/1324 3SM TSRA BKN020CB
      AMD LTD TO CLD VIS AND WIND=

USA.gov is the U.S. government's official web portal to all federal, state and local government web resources and services.